Theta_e
307 307 307 307 307 307 307 308 308 308 308 309 309 309 309 308 308 309 309 309 310 310 311 312 313 313 313 314 315 315 316 316 316 316 316 316 314 315 317 317 316 314 313 313 313 314 314 314 314 313 317 319 317 318 317 320 328 333 332 326 322 327 328 327 329 324 319 321 322 319 315 313 316 318 315 313 315 318 318 316 315 313 313 314 314 313 312 314
309 309 309 309 308 308 309 309 310 310 310 311 310 310 310 309 309 310 310 311 311 312 313 314 314 314 315 315 316 316 316 316 317 316 316 317 316 316 317 316 315 313 313 313 313 313 316 317 313 315 320 319 317 319 320 318 323 337 332 320 326 336 331 328 330 324 319 318 319 319 315 313 315 316 313 313 317 318 317 316 314 315 315 312 311 312 313 315
309 309 309 310 309 309 310 310 310 311 311 311 311 311 310 310 311 311 312 312 313 314 314 314 314 315 315 315 315 315 316 317 316 315 317 318 317 317 316 315 314 313 313 313 314 313 315 317 313 317 322 319 319 321 324 321 320 332 328 322 336 337 326 326 326 323 320 317 317 318 315 314 316 315 313 314 316 317 317 317 315 315 316 314 313 312 311 315
310 310 310 310 309 309 310 310 311 311 311 312 312 312 312 312 312 313 313 314 314 315 314 314 314 314 314 314 313 314 316 317 316 316 317 317 316 316 315 314 313 313 313 313 314 314 314 314 313 318 322 319 322 321 324 324 319 321 322 328 336 326 321 325 325 323 320 316 315 316 316 315 315 314 314 315 317 316 317 318 316 315 315 315 313 310 309 312
312 312 311 310 310 310 311 311 311 311 312 312 312 313 313 314 314 315 314 314 315 314 314 314 314 314 313 312 311 312 317 320 316 314 316 316 314 314 314 313 313 313 313 314 315 315 314 313 313 319 320 318 320 320 322 325 320 320 323 329 330 321 319 322 325 322 317 315 315 316 316 315 314 314 316 316 316 316 316 316 316 315 314 312 311 309 308 311
313 313 312 312 311 311 311 311 312 312 312 313 313 313 314 315 316 316 314 315 316 316 316 316 316 317 315 313 312 313 317 320 315 314 316 314 314 314 314 314 313 313 313 315 315 314 314 313 314 319 320 317 317 318 318 319 317 321 325 326 327 321 318 321 322 319 317 315 316 317 314 313 314 315 317 316 315 315 315 315 314 314 311 308 308 308 309 311
314 314 314 314 313 313 312 312 312 312 313 313 314 314 315 317 317 317 316 317 318 319 319 320 319 319 318 314 314 318 319 319 316 316 316 313 314 314 314 314 314 313 313 314 314 315 316 315 315 318 319 316 316 317 317 315 315 320 324 325 323 319 320 323 321 321 320 315 315 315 312 312 314 315 316 316 315 315 313 312 310 308 306 305 306 306 307 308
315 315 315 314 314 314 313 313 313 313 314 314 315 316 317 318 319 319 319 320 321 322 321 321 320 319 318 314 315 321 321 319 318 318 318 315 314 314 314 314 313 313 312 313 314 315 316 315 315 315 317 317 315 316 314 313 317 321 324 323 319 317 320 322 320 320 318 314 314 313 312 314 314 313 313 314 314 313 312 311 309 308 306 306 306 306 306 306
316 315 315 314 314 314 314 313 313 314 315 316 318 319 319 320 320 321 321 322 322 322 321 320 319 317 316 313 314 321 320 318 319 319 319 318 316 315 314 314 313 313 313 314 314 313 314 317 317 315 316 317 314 315 314 314 318 321 322 320 316 316 317 317 317 316 314 314 313 312 314 314 312 311 313 316 315 312 313 313 310 311 310 307 307 307 307 307
317 315 315 314 313 313 314 314 315 317 317 319 320 320 321 321 321 322 322 322 322 321 320 319 318 317 316 314 316 321 319 319 321 319 320 319 317 315 314 314 313 313 313 314 314 312 314 316 314 313 317 317 314 314 314 314 315 316 318 316 314 314 315 315 317 315 312 312 313 313 314 314 312 312 315 319 315 311 315 313 310 312 311 307 307 307 305 305
317 316 315 314 313 313 314 315 317 318 320 320 320 321 321 321 322 322 322 322 322 320 318 318 316 316 316 315 318 321 318 318 320 318 319 319 316 315 314 314 314 313 314 314 314 313 314 313 311 312 316 315 313 313 314 315 313 313 314 315 315 314 314 314 315 314 311 312 314 313 315 315 311 313 317 317 314 312 313 312 310 311 310 308 307 306 305 304
316 315 314 313 313 313 314 316 318 319 321 321 321 322 321 322 322 322 322 322 321 318 316 316 316 315 315 314 318 319 317 318 318 317 317 316 315 314 315 315 315 314 314 314 314 315 315 314 313 315 316 314 315 314 313 314 312 313 313 313 317 317 316 315 313 313 312 313 315 314 316 318 315 317 319 314 312 314 312 311 311 309 309 308 307 305 304 303
316 316 314 314 314 314 315 317 319 320 321 321 321 322 322 322 322 322 322 321 319 316 315 315 314 314 315 319 319 316 316 318 318 317 316 315 314 314 316 316 316 315 315 315 314 314 314 314 314 316 315 315 318 314 313 315 313 314 313 312 315 317 320 318 312 312 312 313 315 313 316 325 325 322 319 311 310 314 313 310 310 309 308 307 306 304 303 302
316 316 315 315 314 315 317 319 320 321 321 321 322 322 322 322 322 322 322 320 317 315 314 313 314 315 317 322 319 314 316 316 317 318 316 316 315 316 316 316 316 315 315 315 314 314 314 314 313 314 313 315 316 311 315 321 319 315 312 315 317 316 324 323 312 313 314 313 313 312 316 325 325 322 316 308 309 313 312 310 309 309 307 306 305 303 303 302
316 315 315 315 314 316 319 320 321 321 321 322 322 322 322 322 322 322 321 319 316 315 315 313 314 316 317 321 316 314 316 316 318 318 317 317 315 315 316 316 316 315 316 315 314 314 313 313 314 316 314 312 316 317 320 325 327 322 314 322 325 316 322 325 313 315 315 312 311 311 319 321 319 322 316 308 311 314 311 310 309 308 306 304 304 302 302 302
315 316 315 314 314 316 319 320 321 322 322 322 322 323 323 322 322 322 320 316 314 316 316 316 316 315 318 320 315 313 315 315 317 317 317 317 315 315 315 315 314 313 314 313 314 313 312 314 314 314 315 312 319 329 327 323 328 328 317 322 329 319 319 322 316 316 316 313 312 311 317 319 317 320 316 310 313 313 312 311 307 306 305 302 302 301 301 301
315 316 315 314 314 317 319 321 321 321 322 323 323 323 322 323 323 321 319 315 315 317 316 316 315 315 318 317 315 316 314 314 315 316 316 316 315 315 313 313 312 311 312 311 313 312 310 314 312 313 317 315 319 326 325 321 324 327 319 317 324 321 317 319 318 318 316 315 314 313 314 316 317 317 314 312 313 313 314 311 306 305 303 302 302 301 301 301
315 315 315 315 315 317 320 321 321 321 322 323 322 323 323 322 321 320 318 317 316 317 317 316 314 318 321 317 316 317 314 313 315 315 315 315 315 314 313 312 309 310 313 313 312 312 312 316 317 319 318 314 316 318 320 322 323 327 323 320 322 321 318 318 318 318 317 317 317 317 316 317 318 315 312 311 312 315 313 307 305 304 302 302 301 301 301 300
315 315 314 315 316 318 320 321 321 321 322 322 323 323 321 320 318 317 316 317 320 323 324 320 317 323 324 318 316 314 314 314 315 314 313 315 314 313 312 311 312 314 316 318 315 314 317 318 319 320 317 315 316 315 317 320 321 325 325 325 326 323 320 318 317 318 316 315 318 319 318 320 320 316 313 311 310 313 310 304 304 304 302 302 301 301 301 300
314 314 314 315 316 318 320 321 321 322 322 322 323 322 322 323 323 322 319 319 323 325 326 323 320 323 321 318 316 314 314 313 313 313 313 314 313 313 313 311 316 318 318 325 320 313 316 318 319 319 319 318 314 312 313 316 318 320 319 321 322 320 319 316 316 319 315 315 320 319 318 321 320 316 312 309 310 310 307 305 304 303 302 302 301 301 300 300
314 314 314 315 316 319 321 321 321 322 322 322 322 321 323 327 327 326 324 324 322 318 322 322 318 320 318 316 315 314 315 315 314 313 312 314 313 314 316 314 319 321 320 325 320 312 314 317 319 319 318 317 315 313 312 313 315 315 316 317 319 319 317 314 314 317 314 315 321 317 317 322 320 315 309 307 310 310 307 305 304 303 302 301 301 301 300 300
315 314 314 315 318 320 321 321 321 322 322 323 321 318 319 320 320 319 321 327 325 317 319 320 316 318 317 315 315 314 317 321 318 315 312 313 313 315 317 317 321 324 320 318 317 315 316 318 318 315 316 317 317 315 313 313 314 314 316 317 319 319 318 319 318 315 314 316 324 321 318 321 319 312 308 306 307 306 304 304 304 303 302 301 301 300 300 299
316 315 316 318 319 321 321 321 322 322 322 323 320 317 316 318 318 316 318 325 327 320 320 322 320 321 320 318 317 315 318 322 322 319 313 312 315 317 318 317 319 322 319 317 319 320 320 321 316 313 315 316 316 318 316 315 316 318 319 319 322 320 320 325 323 318 316 315 320 320 317 321 317 310 308 305 304 304 303 303 302 302 302 301 300 300 299 299
317 316 318 319 320 320 320 320 321 321 322 323 321 318 319 319 317 316 318 322 324 322 321 320 319 323 324 318 316 318 320 321 323 321 314 313 317 316 317 319 319 319 318 317 319 320 321 321 317 316 316 315 317 319 318 318 321 324 322 319 322 321 320 324 323 320 320 318 317 316 319 327 322 314 311 306 304 304 303 303 302 301 301 300 299 299 298 297
318 318 319 319 319 320 320 320 321 321 322 323 322 320 319 319 316 314 317 321 323 323 318 315 316 321 319 314 315 319 320 321 321 318 313 313 317 316 316 316 317 320 319 316 317 318 319 317 318 320 318 317 319 320 323 324 324 327 326 321 321 322 321 321 320 319 322 326 318 314 323 335 328 318 312 307 306 305 304 303 303 302 301 300 300 299 298 297
319 319 319 318 319 320 320 321 321 322 323 323 323 322 319 318 316 314 319 325 326 325 320 317 318 318 314 312 314 317 322 322 314 312 312 312 314 316 318 317 317 320 320 317 317 318 318 316 317 321 320 319 320 322 326 324 322 326 326 322 320 319 319 320 320 320 325 329 317 312 322 331 328 320 312 308 309 306 304 304 303 302 301 300 300 299 297 296
320 320 319 318 319 321 321 322 322 322 324 324 322 321 319 318 315 312 319 328 328 325 322 318 315 316 313 311 312 318 326 322 312 310 312 312 312 313 318 319 316 317 317 317 321 322 319 317 318 318 319 321 320 323 325 321 325 329 323 322 323 320 320 321 321 321 323 323 319 319 322 321 324 322 311 308 310 307 305 304 302 301 301 300 299 298 297 296
320 320 319 319 320 321 321 322 322 321 324 324 321 320 319 317 315 314 323 333 330 323 321 316 312 312 311 309 311 317 318 315 316 314 309 310 312 312 317 320 321 321 316 318 327 324 317 316 320 320 320 322 323 325 323 319 324 326 319 320 324 322 323 325 325 323 320 318 322 323 318 318 325 321 310 308 313 311 307 305 303 302 301 300 299 298 296 296
321 320 319 319 320 321 321 322 322 322 324 323 320 321 318 315 314 317 325 332 328 319 316 313 310 311 311 311 313 314 310 310 316 314 309 310 311 312 316 319 322 321 314 316 325 322 315 314 319 322 323 324 324 321 318 319 321 318 315 318 322 321 323 325 325 324 322 321 323 322 318 319 323 320 312 310 314 314 308 304 303 302 301 300 299 297 296 296
322 321 320 319 320 321 321 321 321 323 323 322 321 319 316 316 318 324 329 330 324 319 314 311 312 312 313 314 313 312 310 311 312 312 312 313 313 312 312 313 317 320 317 318 321 320 316 312 314 319 321 322 322 315 313 317 316 313 317 325 327 325 323 324 324 321 323 323 321 322 320 317 321 323 317 312 312 312 308 304 304 303 302 300 298 297 297 296
322 322 321 320 320 320 320 320 321 323 322 321 320 317 317 321 323 330 332 326 322 320 314 313 313 311 313 317 317 313 311 312 312 314 314 313 315 315 313 312 316 322 323 321 321 320 317 314 315 318 318 318 320 316 313 315 315 316 324 328 328 327 324 325 325 322 326 325 319 319 317 313 319 322 317 312 307 307 307 305 304 303 302 300 299 297 296 295
322 323 323 322 321 321 321 321 321 322 322 321 319 318 322 325 325 330 329 322 324 323 318 319 315 312 314 317 318 316 314 313 312 315 318 316 317 317 316 319 320 323 325 323 323 323 320 319 317 316 315 316 322 322 316 317 319 322 325 325 326 326 324 326 326 321 324 322 314 315 315 314 319 318 314 313 307 304 306 305 302 302 301 300 299 297 296 295
322 323 323 322 321 320 321 322 321 322 322 319 319 320 323 328 328 329 326 324 327 322 319 323 319 317 317 316 318 316 314 316 312 314 317 316 317 317 317 319 318 318 321 320 321 322 324 324 317 314 315 316 321 323 320 322 321 319 322 325 327 327 326 330 327 318 319 319 312 311 314 317 321 316 310 308 304 301 304 304 302 301 300 299 298 297 296 295
322 321 321 320 320 320 320 321 320 321 320 318 320 322 323 327 328 326 325 326 326 322 319 321 318 317 317 317 320 317 315 317 313 313 316 314 316 319 319 316 314 318 321 319 320 322 326 327 322 318 318 317 317 318 324 329 321 316 320 322 324 328 329 329 328 321 319 321 314 309 314 322 323 314 304 302 301 300 302 302 301 300 299 298 297 297 296 295
320 320 319 318 318 319 319 319 320 320 319 318 322 324 323 326 326 325 327 326 325 323 320 321 320 317 319 321 322 318 316 318 315 314 317 316 318 322 323 319 315 320 323 321 322 322 322 326 325 317 314 315 316 317 323 328 321 315 315 318 321 324 323 320 321 318 316 319 318 314 318 322 317 307 301 302 301 299 300 300 300 300 298 298 297 296 296 295
317 316 317 316 315 317 317 318 319 319 319 320 322 323 323 325 326 326 326 323 324 323 321 325 325 320 322 325 323 318 316 319 318 316 316 316 318 320 322 323 317 316 318 320 323 322 320 325 322 314 313 314 314 315 318 321 321 315 314 319 319 316 318 320 319 314 313 317 319 317 319 317 312 307 303 302 301 300 300 299 299 299 298 297 297 297 296 295
314 313 313 313 314 316 316 317 318 317 319 321 322 322 321 323 323 324 323 319 322 325 324 326 326 323 325 325 324 322 319 320 318 317 319 319 319 319 322 324 317 313 316 318 323 322 320 325 321 314 316 314 309 312 316 315 316 318 320 320 315 313 318 321 321 319 318 319 318 319 319 317 316 313 305 302 303 302 300 300 299 298 298 298 297 297 297 296
312 311 311 311 313 315 315 316 317 316 320 322 322 322 321 321 319 319 320 317 319 326 328 327 325 324 325 325 325 323 321 322 319 320 323 322 320 321 322 322 315 314 316 314 318 321 317 322 321 313 316 315 309 314 318 313 311 316 319 315 313 318 321 319 319 322 321 319 321 323 320 316 317 317 312 309 306 302 301 300 299 299 298 297 297 297 297 296
311 311 313 310 311 314 314 314 315 317 321 322 322 322 321 320 317 317 318 318 320 325 326 326 323 322 323 325 325 322 320 322 321 321 323 320 320 319 318 319 315 314 317 314 317 321 316 320 321 313 312 314 314 316 321 318 312 311 313 312 313 319 321 320 318 319 322 320 321 324 320 319 319 318 319 317 306 301 302 301 299 299 298 297 297 297 297 296
309 314 314 308 309 313 313 313 315 319 322 322 322 320 318 318 317 316 317 318 319 322 323 323 322 321 322 322 322 321 320 324 323 321 321 320 320 318 316 319 318 315 315 313 315 319 316 318 321 316 311 314 317 318 321 321 317 315 316 316 316 315 317 319 316 316 321 322 323 323 318 321 321 313 315 315 306 301 302 301 300 298 298 298 297 297 296 294
308 314 313 307 308 312 313 315 317 319 321 321 320 318 315 316 316 316 317 316 316 317 319 322 322 322 322 320 321 319 318 323 324 321 320 319 319 318 315 317 319 316 314 314 316 319 318 319 320 318 315 319 323 318 314 317 320 320 321 319 318 318 317 318 316 316 317 318 322 322 317 320 318 307 308 310 304 301 301 300 300 298 299 299 297 296 295 294
311 314 310 306 308 311 314 317 316 314 316 318 318 316 314 315 315 316 316 315 315 315 316 318 319 320 319 319 321 320 317 321 323 320 321 320 319 317 313 312 314 316 318 320 318 317 318 320 320 319 318 319 318 311 307 311 315 316 317 316 318 319 319 319 318 318 317 314 315 317 317 317 311 305 306 306 303 301 300 299 300 299 299 299 298 297 296 295
312 313 308 305 308 311 314 316 314 311 312 313 313 313 313 314 314 315 315 316 316 315 315 316 316 317 317 317 318 318 317 319 321 321 322 321 318 314 311 311 313 315 320 319 316 315 316 318 319 320 321 317 312 309 308 308 310 312 314 313 315 318 318 317 316 317 318 317 316 316 317 315 308 305 305 303 301 302 300 300 300 300 300 299 299 299 297 296
310 310 308 306 308 311 313 315 314 312 311 310 310 312 312 312 313 314 314 315 317 316 315 316 316 315 316 316 315 317 317 317 318 318 319 318 314 309 309 311 311 313 316 316 316 317 317 318 320 319 320 318 314 312 312 311 312 314 314 312 311 314 314 312 310 312 314 317 317 316 315 314 310 306 305 303 302 302 300 300 301 301 302 301 300 299 297 296
308 309 309 307 308 309 311 312 313 312 311 309 310 310 311 311 312 313 313 314 316 317 315 315 316 315 315 315 315 317 316 316 316 315 314 315 313 310 309 310 310 313 314 313 314 315 315 317 319 318 317 318 317 316 317 316 315 313 312 310 310 311 312 311 312 313 313 314 314 314 314 314 312 308 306 304 303 301 300 300 301 302 303 301 300 299 297 296
310 309 308 308 308 309 310 310 311 311 310 309 310 310 309 311 311 311 312 312 314 316 315 316 316 315 316 316 316 317 316 315 315 314 314 317 316 312 308 307 309 312 312 311 312 315 316 316 316 317 317 315 315 315 314 314 315 314 312 311 310 310 309 311 313 313 313 312 312 312 311 312 312 310 308 306 304 303 302 301 302 303 303 302 300 299 297 296
308 308 307 307 307 308 309 309 310 310 308 310 311 310 309 310 310 309 311 312 313 314 314 315 314 314 316 316 315 316 316 315 314 314 316 319 317 311 306 305 307 309 310 310 311 314 316 314 313 315 315 312 311 312 311 310 312 314 313 312 311 308 307 310 311 311 312 312 311 310 310 310 310 309 310 309 306 304 304 303 303 304 303 301 300 298 297 296
304 306 307 307 308 308 308 309 310 309 309 309 310 309 310 310 309 310 311 310 312 313 313 314 314 314 315 315 315 316 315 315 314 314 315 316 314 310 308 307 306 307 309 308 308 312 315 315 314 314 314 312 309 310 312 311 310 311 312 312 311 308 307 307 307 308 310 311 310 309 309 309 308 307 310 311 307 305 306 305 303 302 301 300 299 298 297 296
302 303 303 304 306 307 308 309 310 309 309 309 309 309 310 310 310 309 310 311 311 312 312 313 313 313 314 314 315 315 315 315 315 314 314 314 312 312 313 312 307 305 307 308 308 311 314 315 313 311 312 312 308 308 308 308 308 309 309 309 309 306 305 305 305 306 307 307 307 307 306 306 305 304 306 309 308 306 305 303 302 301 301 301 300 300 298 296
301 302 303 303 303 303 306 309 310 309 310 309 309 309 308 309 309 308 309 312 312 311 312 312 312 313 313 314 315 314 314 314 313 313 313 313 312 311 312 314 310 305 306 308 308 308 310 312 310 308 310 309 305 304 304 303 304 305 306 306 304 302 302 302 303 303 303 304 303 303 303 303 302 302 302 305 307 304 303 303 302 300 300 300 300 299 298 295
297 297 300 303 304 303 304 307 309 309 310 309 310 309 308 309 309 308 309 311 311 312 312 312 312 312 312 312 313 313 313 313 314 315 315 314 313 311 311 313 311 308 308 307 307 308 308 308 306 306 310 309 304 302 301 300 300 301 302 302 300 299 300 300 300 301 301 302 301 301 302 301 301 301 300 301 303 302 301 301 300 299 299 300 300 299 296 293
295 295 296 301 305 304 303 306 308 309 309 309 309 309 309 309 308 308 308 309 310 310 310 312 312 311 311 311 311 311 311 311 310 309 308 309 310 310 310 310 309 309 309 306 305 307 307 307 306 306 308 307 302 300 300 300 302 303 302 301 300 300 299 299 299 299 299 299 300 300 300 300 299 299 298 299 300 299 298 298 298 298 299 298 297 297 295 293
Wind_Speed
2 2 2 3 3 3 3 3 3 3 3 3 3 4 4 4 4 5 6 6 6 7 7 8 9 10 11 12 14 15 16 17 17 14 10 11 9 6 6 4 3 3 4 6 7 6 4 2 1 2 3 2 4 2 3 3 2 4 3 3 1 3 4 5 6 6 3 3 6 4 2 2 6 6 3 4 2 4 6 6 4 4 6 7 10 11 11 9
2 2 3 3 2 2 3 3 3 4 4 4 4 4 4 4 5 6 6 6 7 7 7 9 9 11 12 13 14 15 17 17 17 14 10 7 3 8 6 4 2 2 4 5 7 6 5 1 1 4 5 3 3 3 2 2 3 3 3 2 3 5 5 5 7 5 3 3 6 5 3 3 6 5 3 4 6 6 8 9 3 4 8 8 11 11 10 8
2 3 3 2 2 2 3 3 3 4 4 4 4 4 4 5 5 6 6 7 7 7 8 9 10 11 12 13 13 14 15 14 11 8 3 2 7 8 6 5 2 3 5 4 6 5 4 3 4 5 4 2 1 3 3 1 1 2 3 1 6 6 4 4 6 6 6 4 4 7 2 2 6 4 2 4 7 5 6 9 4 7 9 7 7 7 9 8
3 3 3 3 3 3 3 3 3 3 4 4 4 4 5 5 5 6 7 7 7 7 8 9 10 11 11 11 11 11 11 8 4 2 3 6 8 8 6 5 3 5 6 3 4 5 2 3 5 4 4 2 3 3 1 2 0 2 4 4 6 3 2 6 7 7 6 4 3 4 3 4 7 2 1 4 8 7 6 7 6 8 11 8 7 8 10 8
3 3 4 4 4 3 3 2 3 3 3 3 4 5 5 5 6 6 7 7 7 7 7 8 8 9 9 9 8 8 6 5 2 2 4 7 8 6 5 4 4 5 7 4 4 5 2 4 5 5 4 1 2 2 2 3 3 2 3 6 5 4 3 7 5 5 3 3 3 4 5 5 4 2 2 3 6 8 7 7 6 8 9 7 7 9 9 8
4 5 5 5 4 4 3 2 3 3 3 3 4 5 6 6 6 7 7 7 7 7 7 7 7 7 6 6 5 3 2 1 3 2 3 6 6 5 4 2 2 5 8 6 3 4 3 4 5 2 2 1 1 2 4 3 2 2 4 3 4 4 4 6 4 4 1 1 5 4 4 2 3 6 4 5 10 10 10 7 5 8 7 7 7 7 8 8
6 6 6 6 5 5 4 3 3 3 3 3 4 5 6 6 7 7 7 7 7 7 7 6 6 5 4 4 3 2 3 3 6 4 5 6 6 4 3 2 2 5 9 8 3 4 4 4 2 3 4 1 3 4 4 2 1 3 3 4 4 4 5 7 5 6 4 4 8 3 3 4 5 6 3 7 13 13 12 5 4 7 9 9 7 8 8 9
8 8 7 7 7 6 4 3 3 3 3 3 3 4 5 6 6 7 7 7 7 7 7 6 6 5 3 1 1 3 2 5 5 5 6 6 7 5 4 4 4 6 8 9 6 5 5 5 4 4 3 2 4 3 1 1 2 3 5 4 3 2 6 7 6 8 7 6 7 2 5 9 8 3 2 12 16 13 8 6 7 6 9 10 9 9 8 9
11 10 8 8 8 6 5 4 3 3 3 3 3 4 5 6 6 7 7 7 7 7 7 6 5 4 2 1 4 2 4 4 3 4 5 6 8 7 6 5 5 6 7 7 6 7 5 5 5 4 4 3 4 3 1 1 2 5 5 3 4 5 7 7 7 8 6 4 3 3 9 9 5 2 2 14 14 8 6 8 7 7 10 9 9 8 8 9
11 12 10 10 9 6 5 3 3 2 2 3 3 4 5 6 7 8 8 8 8 7 7 5 4 2 3 2 5 1 5 2 2 4 4 6 7 7 7 5 5 7 7 5 5 7 5 5 5 4 4 3 3 2 2 3 3 4 4 4 5 7 8 5 7 9 4 3 5 6 11 8 3 1 3 11 5 5 9 9 8 10 9 8 8 7 9 10
12 13 12 11 9 6 4 3 2 2 2 2 4 5 6 7 7 8 8 8 8 7 7 5 4 3 3 3 5 4 5 3 3 3 4 6 6 7 6 5 5 8 7 4 5 6 3 5 6 5 1 2 3 1 1 3 2 2 1 5 7 6 8 6 7 9 3 3 6 8 8 6 2 1 7 8 3 8 9 8 9 10 7 7 8 7 9 10
13 14 12 10 8 6 4 4 3 2 2 2 4 5 6 7 7 8 8 8 7 6 6 4 4 4 3 2 4 9 7 4 4 2 3 5 5 6 4 4 5 7 8 4 4 5 3 5 8 4 2 3 2 1 2 3 1 1 2 5 8 7 7 9 5 3 1 2 5 7 3 7 1 6 10 5 7 7 9 8 8 8 6 7 7 7 8 10
14 14 12 9 7 6 5 4 3 2 2 3 4 5 6 8 8 8 8 7 6 6 5 3 4 5 3 0 6 11 12 9 7 4 4 5 5 5 4 4 4 4 6 5 5 5 4 5 7 4 2 4 1 1 2 2 1 2 2 1 6 7 7 8 1 3 2 2 4 4 2 7 6 10 9 4 6 7 9 7 6 6 5 6 6 6 7 10
16 14 11 9 7 6 6 5 3 3 3 4 5 6 8 8 8 8 8 6 5 4 3 1 3 5 3 3 5 6 10 10 8 6 6 6 5 5 4 4 4 3 3 5 6 6 4 4 5 3 1 2 1 1 3 5 3 2 2 1 3 2 5 8 1 1 3 1 3 3 2 6 9 11 7 4 6 7 8 5 6 5 5 6 6 6 6 9
16 12 10 9 7 6 6 5 3 2 3 5 6 8 9 9 9 9 7 4 2 2 2 2 4 4 1 5 6 4 6 7 8 9 8 7 6 5 5 5 4 4 5 5 6 5 3 4 4 3 1 1 4 2 3 4 3 2 1 3 3 2 5 10 4 4 2 2 2 4 2 6 8 11 6 5 7 8 7 5 6 6 6 6 5 7 6 7
15 11 10 9 7 6 6 5 3 2 3 5 7 9 9 10 9 7 4 1 0 1 2 2 4 4 1 4 2 2 5 6 7 9 8 8 8 5 6 7 5 5 5 5 5 4 3 4 2 1 1 1 4 4 3 4 4 3 1 4 3 3 3 7 5 1 1 1 2 2 2 4 6 10 6 7 8 7 7 6 6 6 6 6 5 6 6 6
14 12 11 9 8 7 7 5 3 2 4 6 8 9 9 10 7 5 3 2 2 1 2 2 4 3 2 2 1 3 4 5 6 7 9 8 8 7 8 6 4 6 6 4 4 3 3 3 1 1 2 2 3 4 3 2 4 3 0 3 4 4 3 3 4 4 5 3 1 2 1 6 9 10 7 9 7 6 8 6 6 6 6 6 5 6 6 7
13 12 10 9 8 7 6 4 2 2 5 7 8 9 8 6 3 2 3 4 3 3 2 1 4 1 3 2 2 2 1 3 5 7 8 7 7 7 6 4 4 6 5 4 2 2 2 3 2 0 2 2 2 5 3 6 6 4 3 3 3 3 4 5 4 4 5 4 3 2 2 8 12 10 6 8 6 8 8 6 7 6 6 6 6 6 6 7
12 11 10 10 9 7 6 4 1 3 5 7 7 6 4 3 2 1 4 5 3 1 1 3 4 2 3 3 2 1 3 4 6 6 7 7 8 7 5 5 5 5 4 1 1 0 1 2 3 1 1 2 5 8 10 9 7 7 5 4 4 3 6 6 5 5 1 3 5 4 6 8 11 8 6 8 6 9 7 7 7 5 6 5 6 6 6 7
11 11 11 11 9 7 6 3 1 3 6 7 5 3 1 1 2 1 1 3 5 5 2 4 6 2 2 2 2 4 4 4 3 4 7 9 9 7 5 4 5 4 2 3 2 0 3 3 2 5 8 10 12 11 8 3 4 4 3 2 4 5 7 5 4 6 1 1 6 4 5 7 9 5 6 7 6 8 6 7 6 5 5 5 6 6 6 7
12 12 11 10 9 7 6 3 1 3 5 6 4 2 2 3 1 2 2 3 9 10 7 6 8 7 5 3 5 7 4 1 1 2 8 9 8 6 1 2 4 1 2 3 2 1 3 4 8 10 11 8 7 6 4 2 1 1 1 2 5 5 7 7 4 5 0 3 4 1 1 8 7 4 6 5 6 7 5 6 6 5 5 5 6 6 6 5
14 13 12 10 9 7 5 3 3 4 5 5 3 1 2 2 2 1 1 3 8 9 9 7 5 8 8 4 6 6 3 1 1 1 8 7 4 4 1 3 4 3 1 2 2 1 1 5 12 11 5 2 3 5 5 5 4 2 2 2 5 4 5 7 4 3 2 3 4 2 2 8 5 5 6 6 7 5 5 6 5 4 5 5 5 5 6 5
15 14 12 11 10 8 5 3 4 5 5 4 3 3 3 1 3 2 2 0 6 4 5 5 4 6 6 5 7 7 2 4 3 4 9 8 2 3 4 4 5 3 2 4 5 4 3 6 10 6 5 5 1 3 6 3 1 3 4 2 4 3 1 4 4 4 2 1 3 1 3 6 2 4 6 6 5 6 6 7 6 5 5 5 5 5 5 5
15 15 13 12 10 7 3 3 6 7 6 5 5 5 4 3 4 3 1 0 4 4 4 5 4 5 5 3 7 10 5 4 4 5 11 11 3 3 4 5 5 3 3 7 7 6 7 6 2 3 5 7 3 3 6 4 1 3 5 5 5 4 5 6 4 4 2 2 2 1 3 5 2 1 3 4 4 5 5 6 7 6 5 5 5 6 5 4
16 16 14 12 10 6 2 4 8 8 6 5 7 7 5 4 4 4 2 1 3 4 3 4 3 3 4 3 7 9 3 2 3 3 10 12 6 4 2 3 4 4 5 6 5 5 9 6 3 4 3 5 5 3 4 6 2 4 5 10 10 8 7 5 3 5 4 3 3 3 3 5 3 1 4 3 3 4 4 5 6 5 5 5 5 5 5 4
17 17 16 14 10 7 2 4 6 7 6 6 8 8 7 5 5 5 3 3 4 4 1 3 2 4 5 3 3 5 4 2 2 1 6 8 5 4 2 1 1 3 6 5 3 3 5 3 3 4 4 4 3 2 5 7 4 3 4 8 9 7 5 4 1 2 0 3 3 3 1 5 5 1 5 5 4 4 3 4 4 4 4 4 4 4 4 4
18 18 18 15 12 10 5 2 5 8 4 6 10 11 9 6 6 5 2 3 5 3 3 1 0 4 5 1 1 5 3 3 1 3 2 3 1 3 2 3 1 2 4 4 1 3 2 1 1 5 4 4 3 4 6 7 6 2 4 4 5 5 5 4 4 3 2 3 4 3 2 4 6 3 3 6 6 4 3 3 3 3 3 3 3 3 3 4
20 20 20 18 16 16 12 4 5 8 5 5 10 13 9 7 7 3 2 2 4 2 3 1 1 2 2 1 3 4 2 1 3 0 2 3 1 3 1 5 6 4 2 5 3 4 1 1 2 6 4 4 5 4 6 10 5 5 3 6 5 6 5 4 5 2 1 2 4 3 1 3 6 3 1 4 4 3 3 3 3 2 2 2 3 3 3 4
23 22 21 21 19 19 18 12 7 8 9 8 11 13 11 9 6 4 2 4 1 2 1 1 2 1 1 3 3 3 1 2 2 2 3 3 0 3 2 5 6 5 1 3 4 4 0 2 4 7 4 5 4 2 4 8 4 3 5 6 5 5 5 5 4 3 2 2 4 5 4 2 5 3 2 2 3 4 5 4 4 4 3 2 2 2 3 4
25 24 23 22 20 20 20 19 18 13 9 10 13 13 12 8 3 3 4 5 1 1 1 2 2 1 4 4 1 1 1 1 0 1 3 1 2 5 1 2 5 4 1 3 3 4 2 1 2 4 3 5 4 2 2 3 2 3 5 5 5 5 5 4 2 4 2 4 4 7 8 6 4 4 3 4 2 4 7 5 4 5 4 3 2 1 2 3
29 27 26 25 26 26 17 14 24 23 13 14 16 14 9 2 2 4 7 2 2 1 2 2 1 2 5 5 2 1 2 1 0 2 2 1 2 4 1 1 4 3 3 4 4 5 5 2 2 2 2 4 6 4 2 3 3 4 4 4 3 4 4 4 4 4 0 5 3 3 5 5 5 5 1 2 2 2 7 9 9 9 6 4 3 2 2 3
31 30 30 30 30 30 20 14 23 26 20 19 18 11 5 2 3 5 4 1 1 3 4 3 2 3 5 3 3 4 3 1 1 3 4 2 3 3 2 3 4 2 2 3 3 5 4 4 3 2 1 4 6 4 3 5 5 5 4 5 3 3 3 3 3 0 3 6 3 1 1 2 6 5 1 3 4 3 5 8 11 12 9 6 5 3 2 2
32 32 30 31 31 30 28 23 19 22 24 22 14 4 2 4 6 5 4 2 2 2 3 3 3 4 6 3 2 4 3 2 4 3 3 3 3 4 3 3 5 3 0 3 1 2 4 5 2 1 2 2 7 5 1 1 1 4 4 4 3 1 1 2 4 2 4 6 3 1 2 1 5 2 1 4 5 5 5 5 9 10 9 8 6 4 3 3
33 32 29 29 30 29 30 26 19 21 26 20 8 2 3 5 3 5 7 4 1 1 2 3 4 5 5 3 3 4 3 2 5 5 3 3 3 3 4 4 4 4 3 2 2 3 2 5 2 4 2 3 7 6 5 5 3 4 4 4 4 4 4 4 4 3 4 5 3 2 1 2 3 1 2 4 4 4 1 4 6 6 6 6 5 4 4 3
31 29 25 24 27 28 28 25 21 25 26 15 5 4 6 6 1 4 6 4 1 1 2 3 5 5 2 2 2 3 3 2 4 5 3 3 4 3 4 5 5 5 4 3 2 2 3 5 6 2 1 4 5 3 5 6 2 2 3 4 2 4 5 3 3 5 3 3 3 2 3 4 4 1 3 2 2 4 4 5 7 6 5 5 4 4 4 3
26 23 20 19 22 26 27 22 21 27 21 8 5 6 6 4 2 3 4 3 4 4 4 2 3 4 2 2 1 2 1 1 4 4 2 3 3 4 4 4 6 9 6 4 3 2 1 5 5 3 2 2 3 1 3 3 2 1 2 3 4 4 6 2 2 0 3 2 4 1 2 4 1 0 3 3 3 4 4 4 6 6 5 5 5 5 4 4
20 16 13 14 17 22 24 21 25 27 14 5 7 8 4 3 4 4 3 2 3 5 6 2 1 3 3 2 2 3 1 2 3 3 3 3 3 4 5 3 4 11 10 4 2 3 2 4 5 1 1 2 0 1 3 2 3 5 2 5 3 2 4 3 1 2 3 3 4 0 3 4 2 2 3 2 1 3 3 4 5 5 5 5 6 5 5 5
18 11 6 9 15 18 19 23 27 21 7 4 10 8 3 4 3 3 3 2 3 4 5 4 3 3 3 3 2 2 2 3 3 3 3 2 3 4 5 2 1 5 6 2 0 2 2 2 5 1 3 2 3 3 2 4 2 4 3 3 3 2 1 2 2 2 2 4 4 3 4 3 4 4 1 4 8 8 7 6 6 8 7 6 6 6 5 5
15 7 1 5 11 14 19 23 20 10 4 7 11 8 3 3 2 1 2 3 3 3 3 3 2 2 2 3 3 2 2 3 4 3 2 2 3 2 3 3 2 1 2 4 4 2 2 1 4 2 0 1 3 2 2 2 2 2 0 0 1 2 4 2 2 3 3 4 3 5 5 4 5 5 6 9 11 11 9 8 9 10 9 8 7 6 6 6
8 3 1 3 8 12 16 15 8 5 5 6 7 5 1 1 2 1 0 2 2 2 2 2 2 2 2 3 3 2 1 3 4 3 2 2 2 2 0 2 3 1 2 3 3 0 2 2 3 2 3 0 1 2 6 6 3 2 2 2 1 1 1 1 1 2 3 3 2 3 5 6 4 3 6 8 8 11 14 13 11 10 9 9 8 7 7 6
3 2 0 1 9 15 14 8 3 3 3 2 2 2 1 1 1 0 0 1 2 1 2 3 3 3 3 3 2 2 1 1 3 2 2 2 2 2 1 1 3 4 2 4 2 2 2 2 3 2 0 2 5 4 5 7 6 5 5 5 5 3 2 2 4 1 2 2 4 4 6 7 4 2 4 5 7 11 14 12 10 9 10 10 8 8 8 7
3 2 1 2 11 13 9 3 1 1 1 1 1 2 2 1 1 0 0 3 2 1 2 2 3 3 3 3 2 3 2 1 3 3 3 4 4 4 1 1 1 4 4 3 3 3 3 3 2 4 3 5 6 4 1 4 4 5 3 3 3 3 4 4 6 3 1 1 1 2 4 5 2 2 4 4 6 9 10 10 10 9 10 10 8 7 7 7
2 2 2 3 8 6 3 2 1 1 1 1 2 1 2 1 0 1 0 2 2 1 1 1 2 3 3 3 2 3 3 3 4 5 4 3 4 3 1 1 0 3 4 2 2 1 2 3 2 4 3 2 4 4 2 1 3 3 1 1 3 3 3 4 5 3 2 2 1 1 5 4 1 3 3 2 2 5 7 8 10 10 9 8 7 7 7 8
2 2 2 3 5 2 1 3 3 3 3 0 1 2 2 1 1 1 1 1 2 3 2 1 2 3 3 2 3 4 4 4 4 5 4 3 2 0 3 3 1 2 2 2 2 2 1 1 3 1 4 4 3 2 3 3 1 2 2 1 2 3 5 3 1 3 1 4 5 4 7 5 2 3 4 3 3 5 6 7 9 9 8 6 7 7 7 7
2 2 2 1 2 1 1 2 2 2 2 2 2 2 1 1 1 2 3 2 2 4 3 1 1 3 3 2 2 4 5 5 5 2 2 2 1 1 3 4 2 2 1 1 1 2 3 3 3 4 7 8 6 4 3 2 1 1 2 3 3 5 6 4 2 3 4 3 4 4 6 5 4 3 4 3 4 4 4 6 5 5 5 6 6 7 7 7
2 1 1 0 2 2 1 0 3 2 2 3 2 2 4 3 2 1 4 4 3 4 3 2 1 2 3 4 4 5 6 6 4 2 2 3 2 2 2 3 2 2 1 2 3 3 2 1 3 6 9 8 6 5 3 2 3 3 3 4 5 5 6 5 3 4 4 1 2 6 4 2 7 4 1 3 5 5 7 8 6 5 5 6 6 6 7 6
1 1 3 2 1 2 2 1 3 2 2 4 3 2 6 6 2 1 3 4 3 4 4 2 2 4 5 5 5 5 6 5 4 3 3 3 2 2 2 1 2 2 1 2 2 3 4 1 3 5 7 5 3 3 3 2 2 4 4 5 7 4 5 6 5 5 5 3 7 10 5 5 10 9 5 6 7 6 8 8 7 7 7 6 5 5 6 6
1 1 2 2 1 3 4 5 6 5 4 5 3 2 4 6 5 4 3 1 1 4 5 2 5 10 9 7 6 4 4 4 4 4 3 2 1 0 2 1 0 1 2 2 2 3 5 4 3 3 5 4 2 3 5 4 2 3 4 7 8 6 7 7 6 6 7 6 10 9 5 7 10 8 6 8 8 8 8 8 7 6 6 5 5 5 6 7
1 0 1 1 1 2 3 4 8 9 9 6 3 3 5 7 7 5 3 3 1 4 6 6 9 11 9 8 7 6 6 6 5 5 4 2 2 3 1 2 2 1 3 2 0 2 4 3 2 3 3 2 0 2 3 3 2 3 6 10 9 6 6 7 7 8 8 8 9 7 7 10 11 8 6 7 7 7 6 6 5 5 5 5 5 6 8 9
2 1 1 1 1 0 1 2 7 8 8 6 6 7 5 6 9 6 2 4 5 3 6 11 12 8 8 9 9 11 11 8 6 6 5 4 3 3 3 3 2 1 1 2 1 1 1 1 2 3 1 2 1 1 1 1 2 4 9 13 8 2 3 8 9 7 5 7 10 8 8 12 12 6 4 5 5 5 6 8 7 6 5 5 7 8 9 9
3 2 3 3 2 3 1 1 5 5 5 7 8 7 6 8 10 7 2 5 8 5 7 13 13 5 5 8 12 15 14 9 8 9 9 9 7 5 4 4 5 5 3 2 1 1 2 1 2 3 2 3 2 4 3 2 1 6 14 16 9 5 7 8 6 6 8 9 10 8 8 11 9 2 3 4 5 6 8 9 7 6 6 7 9 9 9 9
4 3 3 2 2 4 4 2 4 5 5 7 9 8 8 9 7 7 4 4 4 5 5 9 10 5 4 9 14 14 9 6 5 5 5 5 3 4 3 4 6 6 5 5 1 1 4 3 2 2 3 3 2 5 4 4 2 9 13 11 10 11 11 6 3 8 11 9 7 8 9 9 7 1 3 6 6 7 8 7 7 7 7 7 9 9 9 9
Wind_Direction
234 251 259 267 277 286 291 299 298 297 302 306 310 308 311 317 319 320 319 323 326 328 327 323 322 319 318 319 320 322 323 322 320 314 295 296 287 219 210 236 269 254 198 180 177 164 127 95 103 58 57 49 14 340 353 2 50 51 75 104 225 198 202 191 186 195 181 275 276 311 28 183 285 305 314 324 334 315 312 294 264 283 278 252 267 287 303 307
240 252 262 269 271 284 297 304 307 307 312 315 315 317 318 318 317 318 315 321 327 327 325 321 318 315 316 319 321 325 324 323 318 306 296 296 228 181 193 200 226 225 188 184 188 166 125 159 159 64 48 38 355 352 2 348 60 81 111 123 230 203 214 196 184 205 203 258 270 294 317 202 252 290 343 305 292 331 319 294 289 297 288 282 284 288 299 299
256 264 268 268 264 275 294 304 310 309 315 318 315 318 317 313 314 316 316 321 326 327 323 319 316 314 317 318 322 326 324 327 319 300 307 127 152 163 167 161 160 182 189 193 196 176 119 159 152 91 47 44 335 3 31 1 45 143 122 141 245 217 239 237 200 216 229 248 283 295 309 200 255 273 322 297 292 301 282 282 302 305 301 303 297 303 308 299
262 268 266 269 267 264 277 293 301 307 314 314 313 314 310 309 312 313 317 322 324 325 320 317 314 312 315 316 319 321 329 345 312 248 123 143 151 153 151 154 159 177 199 189 180 183 108 121 124 82 67 48 325 4 60 277 290 166 140 188 232 193 243 256 223 230 243 216 223 281 332 306 286 267 271 324 318 298 265 252 241 269 292 304 312 323 319 303
279 282 277 272 272 268 267 275 288 299 304 304 306 311 313 315 316 315 316 321 325 325 319 314 310 312 314 313 314 317 351 23 280 197 148 165 157 157 154 158 169 184 197 178 157 168 138 114 98 58 70 83 331 29 253 249 121 160 214 203 202 156 228 268 245 231 229 188 234 295 317 300 304 305 278 304 289 276 268 257 240 253 280 316 329 328 326 315
299 302 297 285 280 277 270 276 286 288 297 302 306 315 322 321 322 320 316 324 330 326 319 313 313 317 317 310 308 319 60 41 264 221 207 189 170 173 164 173 185 197 199 189 155 150 133 85 81 81 77 51 179 183 248 257 125 201 269 245 218 184 219 277 280 252 240 306 278 282 294 304 347 303 269 245 250 252 262 270 280 283 313 7 355 341 342 340
297 301 301 291 280 276 272 269 275 278 289 298 310 319 323 322 325 323 320 329 332 328 324 320 319 318 318 304 293 33 95 249 267 244 239 209 194 198 191 230 222 216 208 201 188 144 124 94 123 152 101 31 196 208 247 298 58 191 258 288 255 201 217 257 272 275 274 259 258 257 325 295 271 283 296 263 258 259 270 307 350 320 359 32 32 18 15 17
297 297 297 288 275 272 268 259 265 268 278 293 309 315 317 318 322 324 326 331 332 331 327 322 321 317 314 252 182 17 333 250 259 245 245 225 219 225 232 250 235 226 208 205 205 164 142 137 173 160 111 237 190 182 213 17 8 192 227 272 282 247 245 263 277 275 272 259 259 272 283 262 239 234 304 269 268 274 287 25 32 12 28 41 49 37 31 31
294 295 296 289 280 273 261 253 260 261 274 296 307 313 316 317 322 327 326 329 331 328 326 322 316 304 261 156 100 21 271 231 242 255 258 238 231 236 244 250 230 215 193 200 200 168 173 177 193 185 172 203 177 181 155 130 268 211 209 256 294 292 283 290 284 268 261 250 244 264 272 271 251 183 254 260 263 295 358 42 29 48 51 44 49 41 36 35
286 291 293 290 284 271 253 246 255 265 287 303 315 322 321 322 325 325 324 326 327 324 324 320 306 276 213 143 96 178 255 242 267 270 269 246 232 235 239 239 219 203 185 183 183 168 177 196 187 154 147 148 164 183 123 151 213 195 195 249 251 273 284 272 264 270 277 247 205 225 268 284 308 74 262 265 265 24 30 31 30 59 59 44 45 38 37 36
272 281 282 281 275 258 237 234 233 243 288 311 321 323 321 323 322 320 323 322 323 324 319 312 290 251 198 139 132 208 260 272 281 280 257 241 227 226 224 221 204 196 191 173 190 195 198 196 154 113 132 179 161 173 240 200 177 172 217 298 274 292 292 254 253 273 291 276 203 188 258 294 7 167 237 260 4 47 47 39 42 60 54 43 42 35 37 33
272 278 274 268 262 240 222 225 215 220 269 304 313 319 320 316 313 315 320 321 322 322 314 306 266 223 167 106 196 229 249 263 279 278 238 218 202 202 191 195 192 195 206 184 185 195 189 183 145 125 218 162 144 299 239 219 115 164 57 324 299 343 317 272 267 279 182 227 195 158 289 306 240 223 241 280 2 27 58 57 51 59 50 44 40 37 38 27
278 280 269 255 247 227 217 216 213 230 257 287 301 313 313 308 311 314 319 322 322 321 313 294 241 200 155 272 237 236 246 256 265 251 207 183 174 184 178 185 183 192 215 195 167 154 152 178 156 151 163 124 188 241 91 41 23 290 29 352 304 352 319 279 356 36 347 217 189 152 280 286 257 246 259 333 9 27 53 59 60 63 53 46 38 38 37 26
274 274 260 245 237 225 216 209 217 241 265 289 302 307 307 307 309 313 319 320 323 328 321 282 195 169 151 251 256 251 247 246 246 223 192 184 179 186 190 184 175 163 181 172 148 125 117 155 142 118 111 112 183 237 25 8 4 314 316 336 332 331 281 292 337 100 321 304 161 140 205 263 276 277 285 25 35 37 51 69 75 66 55 47 37 38 34 28
272 267 254 241 233 225 217 211 218 246 281 297 306 306 304 304 305 310 312 313 337 357 26 91 147 139 81 277 266 263 240 230 229 219 206 202 192 191 195 182 163 143 148 155 141 127 119 123 116 112 219 4 54 52 348 348 0 22 278 296 337 209 265 309 302 182 247 329 102 126 203 267 277 280 295 48 29 23 55 87 78 66 55 46 36 37 32 25
268 258 250 241 233 228 220 216 215 250 297 307 311 309 306 303 303 300 290 276 58 51 65 94 138 125 349 275 260 243 226 219 221 217 207 201 201 193 171 159 143 135 142 147 143 140 105 81 74 121 165 35 67 82 37 358 332 354 207 248 264 205 267 317 319 343 18 11 46 111 235 286 281 275 304 23 9 22 72 90 75 68 56 49 40 36 33 25
257 246 241 237 233 229 224 220 209 267 305 310 311 313 311 309 303 284 253 173 122 67 72 133 138 111 271 242 234 268 228 207 206 198 192 192 198 181 153 137 117 120 114 106 123 118 47 44 27 349 54 58 105 102 56 316 279 304 283 228 247 211 206 287 305 335 26 61 334 348 244 259 271 281 325 358 359 55 88 92 79 71 57 52 46 39 37 32
244 238 236 237 235 230 227 220 205 295 309 312 316 320 321 325 314 261 201 161 118 56 24 146 127 121 269 228 213 247 165 175 178 170 178 177 174 168 147 126 117 110 80 50 66 71 11 19 58 35 22 36 102 115 169 229 221 224 203 198 255 247 227 248 265 298 4 4 304 328 277 262 272 289 341 350 12 73 90 92 83 70 62 56 47 45 38 36
236 233 234 240 238 235 232 213 208 310 313 309 314 324 335 9 27 183 164 153 141 123 239 211 163 155 247 250 231 146 103 138 153 160 166 154 152 144 114 102 103 102 87 49 305 18 95 52 65 113 237 205 190 183 203 216 197 199 192 171 201 247 255 239 239 259 298 318 290 259 257 267 274 296 354 349 23 77 88 84 78 68 67 59 53 48 38 42
236 231 232 238 236 237 234 213 262 313 318 311 318 345 337 33 26 315 205 176 211 215 200 196 197 216 274 257 169 138 128 128 139 165 161 155 151 129 87 59 58 65 117 160 217 282 118 153 191 206 218 216 211 207 211 195 126 146 146 159 216 239 269 254 241 270 189 210 278 245 236 266 272 310 5 347 28 64 64 73 75 67 66 57 58 51 40 44
240 233 230 233 233 233 224 209 268 300 317 316 326 3 200 177 136 285 277 260 245 236 244 228 208 238 255 203 160 151 135 104 54 132 160 162 150 143 108 36 74 22 233 160 158 41 99 179 225 224 220 218 208 199 214 230 135 132 171 266 273 243 261 265 244 280 46 167 264 303 255 272 278 350 15 11 49 46 36 72 76 70 73 61 58 51 42 39
242 235 230 229 225 222 210 211 269 285 304 307 294 232 217 195 166 190 136 286 272 240 237 244 227 249 251 228 199 158 109 247 306 200 173 153 133 178 199 90 142 212 239 126 110 40 125 223 239 232 195 107 92 141 174 212 218 212 163 223 270 246 270 288 292 329 43 161 263 340 311 280 303 27 29 39 63 51 37 63 62 63 72 59 53 48 42 34
239 235 230 223 214 207 201 231 267 278 284 273 249 224 220 181 151 139 107 293 291 260 216 223 212 236 244 248 218 175 191 221 204 243 189 154 126 189 152 138 176 169 130 179 168 164 204 245 251 234 154 157 168 115 134 144 187 187 157 172 253 251 268 284 305 341 31 162 259 268 274 280 305 60 50 43 65 74 58 60 56 51 63 62 58 51 44 36
233 229 222 216 209 199 196 269 276 271 261 242 237 230 206 173 158 147 94 46 286 278 229 208 192 209 221 234 194 177 205 209 180 224 184 161 145 152 164 169 165 160 200 203 182 194 229 233 245 80 130 168 171 114 132 143 235 239 200 199 236 241 215 228 284 328 342 355 359 34 310 289 266 168 97 67 65 68 53 56 57 40 44 58 60 54 42 31
225 221 214 211 201 180 186 291 274 247 221 208 224 218 187 180 175 155 101 17 285 293 277 215 189 203 193 141 164 172 171 203 212 215 178 170 155 138 190 166 150 202 206 182 178 230 250 228 129 75 88 130 138 159 171 167 205 292 234 208 223 233 223 230 318 358 359 338 346 30 338 295 305 218 168 138 69 59 36 46 58 39 31 42 50 46 30 24
223 216 211 208 187 168 198 285 252 209 190 215 218 198 180 180 175 162 103 31 276 269 241 201 174 180 175 127 160 150 111 234 250 110 157 172 158 124 156 164 116 210 179 154 173 229 261 254 183 201 194 155 151 236 223 175 136 312 250 204 213 222 218 220 173 73 281 259 298 44 24 281 302 245 187 157 99 77 50 47 54 44 37 38 40 33 16 19
221 215 210 202 182 184 202 242 206 176 170 234 208 185 184 180 173 173 91 6 275 211 136 223 10 154 173 171 161 137 151 246 74 71 121 151 162 75 127 190 147 189 173 128 159 233 223 2 172 190 181 183 209 257 225 160 123 256 246 151 158 177 189 193 150 144 225 262 316 12 91 271 284 268 193 140 114 91 75 70 64 60 51 41 32 25 21 23
221 215 208 198 192 204 215 213 184 186 213 228 184 179 179 169 173 150 85 275 274 101 113 254 58 114 154 74 73 115 195 297 99 256 351 94 163 49 120 210 171 180 187 134 198 256 173 88 193 161 139 186 212 236 194 154 151 248 215 112 120 143 150 123 107 108 352 2 308 296 116 260 270 278 119 129 141 168 164 163 158 138 115 71 46 28 30 31
225 217 208 200 201 216 227 230 214 211 229 209 175 177 169 162 165 88 83 229 255 70 84 101 116 65 45 78 47 65 65 22 115 248 359 79 106 60 158 205 151 158 205 129 210 256 144 225 197 148 145 202 211 258 181 162 190 220 129 95 71 75 78 73 92 96 29 339 246 217 172 231 272 274 163 176 236 212 181 182 191 182 182 150 87 50 40 38
228 223 214 205 208 221 227 231 230 227 219 193 175 166 157 153 138 117 212 227 129 98 116 100 159 133 95 109 25 358 106 33 51 40 27 67 11 31 131 164 102 124 358 6 269 261 315 297 184 145 170 187 150 85 118 140 155 138 99 60 34 31 42 46 58 79 38 290 234 199 189 191 262 281 196 193 249 184 159 164 199 197 192 183 140 82 57 46
227 227 220 210 214 218 213 222 228 224 210 184 169 153 145 128 92 181 213 213 77 139 133 123 190 126 129 139 156 182 127 54 61 110 108 116 41 35 55 108 81 74 7 333 297 305 335 326 252 246 181 133 101 75 46 42 71 99 83 62 31 340 11 21 358 48 111 261 258 224 202 175 229 270 243 241 306 181 168 171 182 186 185 182 165 135 83 57
228 229 225 218 219 217 212 224 227 220 208 183 164 149 138 166 207 206 209 106 141 197 163 165 183 157 163 149 155 173 148 147 182 140 145 140 146 176 181 169 156 71 347 257 274 334 311 248 262 309 234 137 106 75 17 11 41 79 92 87 65 327 354 353 312 32 232 255 270 259 150 179 237 247 271 289 309 285 226 184 174 175 173 172 171 164 121 72
230 231 227 224 222 218 219 227 226 214 199 177 159 145 140 192 211 189 172 183 185 172 135 132 127 141 150 135 189 183 139 168 186 160 149 123 152 221 253 196 163 129 99 204 212 339 300 296 320 116 269 185 143 146 196 271 108 132 143 128 125 129 45 297 275 277 272 272 287 267 137 244 270 273 251 268 286 285 254 184 166 164 162 165 166 157 128 96
230 228 224 221 220 219 220 221 220 203 186 168 152 163 197 220 217 152 174 213 199 99 71 106 111 116 137 167 214 183 150 199 175 148 132 112 138 228 248 220 172 130 114 144 183 179 222 303 248 180 241 189 171 180 164 142 142 170 158 134 144 152 161 224 231 220 262 286 300 294 163 197 234 266 261 258 291 320 352 124 128 131 143 147 138 134 133 134
221 216 215 215 216 220 219 218 215 194 178 163 150 182 203 220 189 144 186 204 167 116 49 78 105 117 163 244 246 196 188 213 160 137 147 160 174 198 203 203 180 146 129 156 222 177 178 260 257 248 302 155 175 204 126 110 115 213 124 110 162 176 170 213 211 178 195 300 293 230 213 220 195 219 305 313 12 27 52 97 120 132 138 132 137 153 163 174
204 200 204 208 214 219 218 215 202 187 177 156 156 195 217 214 166 178 198 175 160 148 118 79 85 125 201 273 259 226 195 141 151 153 185 194 204 202 200 216 183 172 167 164 203 193 174 266 282 343 359 150 170 214 124 130 194 167 119 180 218 169 138 148 267 73 82 263 267 198 233 288 311 281 343 32 66 64 76 119 142 156 156 152 173 185 184 194
186 185 192 202 211 214 214 206 188 183 180 154 180 203 215 203 183 181 193 161 143 125 124 151 160 161 197 222 221 219 148 132 160 170 198 212 229 195 195 253 192 183 190 173 209 210 181 265 277 133 182 258 293 114 59 33 134 126 175 211 188 117 99 103 241 340 31 244 269 262 212 259 263 256 344 35 186 188 173 175 171 178 178 180 196 198 198 204
169 165 183 204 205 202 199 193 184 180 168 165 206 220 202 198 198 160 166 149 107 94 125 174 201 179 181 186 219 219 181 181 174 174 188 212 237 179 163 211 182 195 215 152 149 238 148 263 284 136 162 294 10 83 49 351 60 126 196 203 120 149 188 98 165 225 252 248 280 295 261 241 213 217 215 207 209 199 191 194 194 196 194 197 204 204 211 210
153 144 195 201 195 191 187 187 184 179 160 181 211 224 198 201 227 191 158 114 90 99 139 185 193 134 153 171 188 202 187 181 172 182 186 186 230 200 142 165 140 247 257 148 163 234 111 213 285 355 193 305 30 82 178 272 345 69 136 340 58 170 179 159 159 174 213 242 267 290 298 272 232 205 186 205 201 180 181 195 200 199 196 199 200 198 204 203
135 129 234 189 180 178 180 187 189 185 187 195 208 208 153 207 231 228 86 78 73 97 145 187 155 140 176 182 189 199 174 167 167 183 212 185 231 265 131 140 138 112 10 113 149 50 82 200 254 337 343 237 156 201 190 188 193 161 179 221 251 219 156 234 231 131 152 195 220 265 280 267 253 196 187 207 194 177 186 193 193 193 193 201 204 197 198 196
91 125 50 151 165 166 167 185 218 196 197 215 194 149 128 206 165 86 273 103 87 77 115 155 166 167 177 182 211 207 145 173 180 184 237 219 219 234 244 71 150 153 94 93 145 208 155 179 218 236 303 199 224 244 199 186 180 165 182 204 200 184 148 238 259 208 128 176 181 212 263 269 260 216 212 216 193 190 194 187 179 184 193 203 207 199 196 194
83 134 343 162 172 169 160 174 271 40 172 231 182 127 127 124 69 204 177 87 86 64 72 142 185 176 179 189 196 175 157 203 200 190 231 228 214 214 216 26 136 139 116 130 197 208 139 115 202 239 218 209 246 284 222 191 152 132 173 192 164 155 140 188 237 232 173 234 141 145 258 265 257 260 263 246 214 199 191 175 169 183 198 204 203 198 198 202
115 132 10 167 182 180 139 150 271 272 216 291 330 18 79 92 150 260 187 96 98 94 82 194 194 189 216 205 163 170 187 201 193 196 225 232 214 222 266 18 128 107 104 150 207 167 95 104 190 266 304 325 311 331 359 45 100 118 243 151 140 163 147 174 211 175 161 231 136 147 251 249 308 317 304 276 196 166 169 171 172 185 200 202 198 198 200 203
124 85 31 181 202 223 139 178 212 213 201 46 316 296 12 63 184 193 199 179 126 116 137 206 190 215 235 178 155 189 192 199 212 207 207 203 194 200 21 8 280 157 132 195 193 178 207 150 141 240 297 317 325 336 338 337 50 181 242 186 150 129 107 107 137 119 200 218 170 200 249 248 289 342 8 39 100 136 172 182 180 187 196 200 200 204 205 200
110 55 20 239 248 300 208 184 140 176 176 144 194 244 321 335 260 200 187 185 143 139 167 239 176 195 207 145 163 204 198 209 228 213 160 197 255 356 14 352 320 186 205 299 133 152 186 175 144 185 235 248 244 226 228 261 235 205 229 211 191 160 147 151 146 163 224 222 165 208 252 269 299 354 40 65 117 141 185 200 207 209 203 208 211 207 203 196
113 65 88 3 330 326 292 56 101 130 166 154 173 196 178 201 290 261 184 202 202 169 184 243 152 161 196 172 183 218 222 218 209 172 159 198 250 293 315 340 18 126 131 71 70 83 116 176 194 204 232 242 231 228 215 154 165 202 220 212 203 188 163 143 135 186 203 199 233 234 224 272 287 286 123 163 174 172 188 197 212 230 225 225 226 215 204 198
114 172 166 153 249 244 252 236 175 176 174 172 182 181 180 194 228 252 197 208 204 180 201 227 163 191 209 180 182 222 225 210 190 181 187 194 233 284 288 343 67 53 54 74 46 76 107 244 236 211 244 248 181 202 205 164 212 208 204 223 214 186 150 156 189 203 168 175 253 246 209 222 263 259 208 195 201 198 204 203 204 220 228 223 217 210 199 195
123 170 190 151 151 208 216 207 191 191 194 188 181 154 178 190 191 198 208 199 136 190 206 220 205 213 210 175 177 216 208 201 214 200 177 165 171 282 331 309 224 6 49 66 355 90 129 241 243 182 250 259 160 192 193 179 232 220 215 236 224 193 177 184 211 210 183 211 254 258 225 223 251 251 200 193 204 204 211 214 211 219 223 208 195 198 201 200
100 86 259 17 61 204 220 179 170 191 204 193 199 214 198 197 197 195 165 127 175 213 201 216 227 218 204 179 180 209 205 195 219 216 179 164 172 158 216 260 249 13 80 113 340 100 142 226 201 158 247 273 185 257 218 173 230 257 248 246 235 213 193 189 212 221 216 237 260 271 264 253 255 248 212 207 213 211 222 236 236 232 224 205 197 205 212 209
137 179 179 80 59 201 319 132 159 195 209 192 218 230 204 206 213 207 162 164 198 213 192 217 230 205 189 194 195 219 222 193 195 208 168 162 206 193 200 216 179 86 79 139 193 297 179 193 135 129 233 290 244 275 25 103 236 261 264 257 246 217 220 221 223 226 239 256 255 257 264 263 261 246 208 219 214 207 236 248 245 241 229 214 212 217 219 212
114 71 111 139 186 169 163 159 156 186 206 198 222 224 199 218 214 195 216 214 202 197 186 211 224 197 180 208 211 226 227 191 192 206 177 178 204 195 197 202 160 148 169 175 171 205 183 182 63 101 186 249 216 163 142 68 358 265 264 259 241 207 230 235 214 204 217 230 241 249 251 257 263 211 157 212 201 199 229 239 243 248 233 215 218 221 216 206
120 46 74 123 186 173 170 171 161 188 210 206 220 218 208 222 199 163 207 245 205 206 198 201 208 190 191 218 221 229 223 169 187 211 168 163 162 137 160 171 149 152 167 169 164 145 160 157 116 146 202 241 176 153 136 62 345 263 259 249 227 226 234 236 220 221 216 205 214 230 234 248 265 245 209 236 223 215 231 234 234 244 234 218 221 220 210 204